Location: Six Mile Lake
(44.9000°N, 79.7170°W)
Time: 03:25:40
(UTC-04:00)

AO-92 - Pass Details

Date: 01 July 2022
Orbit: 469 x 481 km, 97.4° (Epoch: 17 August)

Event Time Altitude Azimuth Distance (km) Brightness Sun altitude
Exits shadow 00:00:44 23° 235° (SW) 1,045 ? -19.5°
Maximum altitude 00:01:44 27° 264° (W) 950 ? -19.5°
Drops below altitude 10° 00:04:50 10° 324° (NW) 1,665 ? -19.7°
Sets 00:07:08 0° 337° (NNW) 2,553 ? -19.8°
